North Padre Island, TX

8:31 AM CDT on March 24, 2017 (GMT -0500)
North Padre Island

Weather History for KOPM - November, 2013

Change the Weather History Date:

Thursday, November 28, 2013

  Actual Average (KHRL) Record (KHRL)
Temperature  
Mean Temperature 60 °F -  
Max Temperature 66 °F 73 °F 91 °F (2016)
Min Temperature 55 °F 54 °F 33 °F (1959)
Degree Days  
Heating Degree Days 4    
Growing Degree Days 10 (Base 50)    
Moisture  
Dew Point 45 °F    
Average Humidity 53    
Maximum Humidity 56    
Minimum Humidity 48    
Precipitation  
Precipitation 0.00 in - - ()
Sea Level Pressure  
Sea Level Pressure 30.35 in    
Wind  
Wind Speed 7 mph (NE)    
Max Wind Speed 14 mph    
Max Gust Speed 17 mph    
Visibility 10 miles    
Events      
Averages and records for this station are not official NWS values.
T = Trace of Precipitation, MM = Missing Value Source: NWS Daily Summary

Daily Weather History Graph

Daily Weather History Graph

Search for Another Location

Airport or City:

Trip Planner

Search our weather history database for the weather conditions in past years. The results will help you decide how hot, cold, wet, or windy it might be!

Date:

Astronomy

Nov. 28, 2013 Rise Set
Actual Time 6:57 AM CST 5:34 PM CST
Civil Twilight 6:32 AM CST 5:59 PM CST
Nautical Twilight 6:03 AM CST 6:27 PM CST
Astronomical Twilight 5:35 AM CST 6:55 PM CST
Moon 2:24 AM CST (11/28) 2:23 PM CST (11/28)
Length of Visible Light 11h 26m
Length of Day
10h 36m
Waning Crescent, 22% of the Moon is Illuminated
Nov 28
Waning Crescent
Dec 2
New
Dec 9
First Quarter
Dec 17
Full
Dec 25
Last Quarter

Hourly Weather History & Observations

Time (CST) Temp. Dew Point Humidity Pressure Visibility Wind Dir Wind Speed Gust Speed Precip Events Conditions
12:15 AM 55.4 °F 39.2 °F 54% 30.38 in 10.0 mi NNE 5.8 mph 11.5 mph N/A   Mostly Cloudy
12:35 AM 57.2 °F 39.2 °F 51% 30.36 in 10.0 mi NE 10.4 mph - N/A   Overcast
12:55 AM 57.2 °F 39.2 °F 51% 30.36 in 10.0 mi NE 6.9 mph 12.7 mph N/A   Overcast
1:15 AM 57.2 °F 39.2 °F 51% 30.35 in 10.0 mi NE 6.9 mph - N/A   Mostly Cloudy
1:35 AM 57.2 °F 39.2 °F 51% 30.34 in 10.0 mi NNE 4.6 mph 12.7 mph N/A   Mostly Cloudy
1:55 AM 57.2 °F 41.0 °F 55% 30.34 in 10.0 mi NNE 5.8 mph 15.0 mph N/A   Overcast
2:15 AM 57.2 °F 39.2 °F 51% 30.34 in 10.0 mi NE 6.9 mph - N/A   Mostly Cloudy
2:35 AM 57.2 °F 39.2 °F 51% 30.33 in 10.0 mi ENE 9.2 mph - N/A   Mostly Cloudy
2:55 AM 57.2 °F 39.2 °F 51% 30.33 in 10.0 mi Variable 3.5 mph 11.5 mph N/A   Mostly Cloudy
3:15 AM 57.2 °F 41.0 °F 55% 30.33 in 10.0 mi NNE 5.8 mph 12.7 mph N/A   Mostly Cloudy
3:35 AM 57.2 °F 39.2 °F 51% 30.33 in 10.0 mi Calm Calm - N/A   Mostly Cloudy
3:55 AM 57.2 °F 41.0 °F 55% 30.33 in 10.0 mi NE 8.1 mph 13.8 mph N/A   Mostly Cloudy
4:15 AM 57.2 °F 41.0 °F 55% 30.33 in 10.0 mi NNE 6.9 mph - N/A   Mostly Cloudy
4:35 AM 57.2 °F 41.0 °F 55% 30.33 in 10.0 mi NE 8.1 mph 15.0 mph N/A   Mostly Cloudy
4:55 AM 59.0 °F 41.0 °F 51% 30.32 in 10.0 mi NE 8.1 mph - N/A   Scattered Clouds
5:15 AM 59.0 °F 41.0 °F 51% 30.33 in 10.0 mi NE 11.5 mph - N/A   Clear
5:35 AM 59.0 °F 42.8 °F 55% 30.33 in 10.0 mi ENE 8.1 mph - N/A   Scattered Clouds
5:55 AM 59.0 °F 41.0 °F 51% 30.33 in 10.0 mi NE 8.1 mph - N/A   Mostly Cloudy
6:15 AM 59.0 °F 42.8 °F 55% 30.33 in 10.0 mi NE 4.6 mph 11.5 mph N/A   Mostly Cloudy
6:35 AM 59.0 °F 42.8 °F 55% 30.34 in 10.0 mi ENE 8.1 mph - N/A   Mostly Cloudy
6:55 AM 59.0 °F 41.0 °F 51% 30.34 in 10.0 mi ESE 4.6 mph - N/A   Scattered Clouds
7:15 AM 59.0 °F 41.0 °F 51% 30.35 in 10.0 mi ESE 5.8 mph - N/A   Mostly Cloudy
7:35 AM 60.8 °F 41.0 °F 48% 30.36 in 10.0 mi East 5.8 mph - N/A   Partly Cloudy
7:55 AM 60.8 °F 42.8 °F 52% 30.36 in 10.0 mi East 8.1 mph - N/A   Mostly Cloudy
8:15 AM 60.8 °F 42.8 °F 52% 30.37 in 10.0 mi East 4.6 mph - N/A   Scattered Clouds
8:35 AM 60.8 °F 42.8 °F 52% 30.37 in 10.0 mi ESE 5.8 mph - N/A   Partly Cloudy
8:55 AM 60.8 °F 42.8 °F 52% 30.38 in 10.0 mi Calm Calm - N/A   Scattered Clouds
9:15 AM 60.8 °F 42.8 °F 52% 30.38 in 10.0 mi Variable 4.6 mph - N/A   Mostly Cloudy
9:35 AM 60.8 °F 44.6 °F 55% 30.39 in 10.0 mi NE 6.9 mph - N/A   Mostly Cloudy
9:55 AM 62.6 °F 44.6 °F 52% 30.39 in 10.0 mi Variable 3.5 mph - N/A   Mostly Cloudy
10:15 AM 62.6 °F 44.6 °F 52% 30.40 in 10.0 mi NE 5.8 mph - N/A   Mostly Cloudy
10:35 AM 62.6 °F 44.6 °F 52% 30.39 in 10.0 mi ESE 5.8 mph - N/A   Mostly Cloudy
10:55 AM 62.6 °F 44.6 °F 52% 30.39 in 10.0 mi Calm Calm - N/A   Mostly Cloudy
11:15 AM 62.6 °F 42.8 °F 48% 30.38 in 10.0 mi East 3.5 mph - N/A   Scattered Clouds
11:35 AM 62.6 °F 44.6 °F 52% 30.37 in 10.0 mi ENE 5.8 mph - N/A   Clear
11:55 AM 62.6 °F 44.6 °F 52% 30.37 in 10.0 mi NNE 6.9 mph - N/A   Clear
12:15 PM 62.6 °F 44.6 °F 52% 30.36 in 10.0 mi NE 6.9 mph - N/A   Partly Cloudy
12:35 PM 62.6 °F 44.6 °F 52% 30.35 in 10.0 mi Calm Calm - N/A   Clear
12:55 PM 62.6 °F 44.6 °F 52% 30.34 in 10.0 mi NE 5.8 mph - N/A   Partly Cloudy
1:15 PM 62.6 °F 44.6 °F 52% 30.33 in 10.0 mi NE 4.6 mph - N/A   Scattered Clouds
1:35 PM 62.6 °F 44.6 °F 52% 30.32 in 10.0 mi Variable 5.8 mph - N/A   Scattered Clouds
1:55 PM 64.4 °F 46.4 °F 52% 30.31 in 10.0 mi Variable 4.6 mph - N/A   Partly Cloudy
2:15 PM 64.4 °F 46.4 °F 52% 30.31 in 10.0 mi Variable 4.6 mph - N/A   Mostly Cloudy
2:35 PM 62.6 °F 46.4 °F 55% 30.31 in 10.0 mi NE 8.1 mph - N/A   Mostly Cloudy
2:55 PM 64.4 °F 46.4 °F 52% 30.31 in 10.0 mi ENE 5.8 mph 12.7 mph N/A   Scattered Clouds
3:15 PM 64.4 °F 46.4 °F 52% 30.30 in 10.0 mi NE 6.9 mph 16.1 mph N/A   Partly Cloudy
3:35 PM 64.4 °F 46.4 °F 52% 30.30 in 10.0 mi NE 10.4 mph - N/A   Partly Cloudy
3:55 PM 64.4 °F 46.4 °F 52% 30.30 in 10.0 mi NE 9.2 mph - N/A   Partly Cloudy
4:15 PM 64.4 °F 46.4 °F 52% 30.30 in 10.0 mi NE 10.4 mph - N/A   Scattered Clouds
4:35 PM 64.4 °F 46.4 °F 52% 30.30 in 10.0 mi ENE 8.1 mph - N/A   Scattered Clouds
4:55 PM 64.4 °F 46.4 °F 52% 30.31 in 10.0 mi NE 10.4 mph 16.1 mph N/A   Scattered Clouds
5:15 PM 64.4 °F 48.2 °F 56% 30.31 in 10.0 mi NE 13.8 mph - N/A   Scattered Clouds
5:35 PM 64.4 °F 48.2 °F 56% 30.31 in 10.0 mi NE 10.4 mph - N/A   Scattered Clouds
5:55 PM 64.4 °F 48.2 °F 56% 30.32 in 10.0 mi ENE 10.4 mph - N/A   Mostly Cloudy
6:15 PM 64.4 °F 48.2 °F 56% 30.32 in 10.0 mi NNE 9.2 mph 17.3 mph N/A   Mostly Cloudy
6:35 PM 64.4 °F 48.2 °F 56% 30.33 in 10.0 mi NE 13.8 mph - N/A   Mostly Cloudy
6:55 PM 64.4 °F 48.2 °F 56% 30.34 in 10.0 mi NE 10.4 mph - N/A   Scattered Clouds
7:15 PM 64.4 °F 48.2 °F 56% 30.34 in 10.0 mi ENE 11.5 mph - N/A   Mostly Cloudy
7:35 PM 66.2 °F 48.2 °F 52% 30.35 in 10.0 mi NE 8.1 mph - N/A   Mostly Cloudy
7:55 PM 66.2 °F 48.2 °F 52% 30.36 in 10.0 mi NE 11.5 mph - N/A   Mostly Cloudy
8:15 PM 66.2 °F 48.2 °F 52% 30.36 in 10.0 mi ENE 10.4 mph - N/A   Mostly Cloudy
8:35 PM 66.2 °F 48.2 °F 52% 30.36 in 10.0 mi ENE 11.5 mph - N/A   Mostly Cloudy
8:55 PM 66.2 °F 48.2 °F 52% 30.37 in 10.0 mi NE 11.5 mph - N/A   Mostly Cloudy
9:15 PM 66.2 °F 50.0 °F 56% 30.38 in 10.0 mi NE 11.5 mph - N/A   Mostly Cloudy
9:35 PM 66.2 °F 50.0 °F 56% 30.38 in 10.0 mi ENE 12.7 mph - N/A   Mostly Cloudy
9:55 PM 66.2 °F 50.0 °F 56% 30.38 in 10.0 mi ENE 11.5 mph - N/A   Mostly Cloudy
10:15 PM 66.2 °F 50.0 °F 56% 30.38 in 10.0 mi ENE 11.5 mph - N/A   Mostly Cloudy
10:35 PM 66.2 °F 50.0 °F 56% 30.37 in 10.0 mi ENE 11.5 mph - N/A   Mostly Cloudy
10:55 PM 66.2 °F 50.0 °F 56% 30.37 in 10.0 mi ENE 10.4 mph 16.1 mph N/A   Overcast
11:15 PM 66.2 °F 50.0 °F 56% 30.37 in 10.0 mi ENE 9.2 mph 16.1 mph N/A   Mostly Cloudy
11:35 PM 66.2 °F 50.0 °F 56% 30.37 in 10.0 mi East 11.5 mph - N/A   Mostly Cloudy
11:55 PM 66.2 °F 48.2 °F 52% 30.37 in 10.0 mi East 6.9 mph 13.8 mph N/A   Mostly Cloudy